Shannon, Ireland

6:50 AM IST on October 18, 2017 (GMT +0100)
Shannon

Weather History for EINN - December, 2012

Change the Weather History Date:

Sunday, December 23, 2012

  Actual Average Record
Temperature  
Mean Temperature 47 °F -  
Max Temperature 50 °F 47 °F 71 °F (2007)
Min Temperature 44 °F 37 °F 12 °F (2010)
Degree Days  
Heating Degree Days 18    
Moisture  
Dew Point 43 °F    
Average Humidity 85    
Maximum Humidity 100    
Minimum Humidity 69    
Precipitation  
Precipitation 0.04 in 0.13 in - ()
Sea Level Pressure  
Sea Level Pressure 29.47 in    
Wind  
Wind Speed 19 mph ()    
Max Wind Speed 44 mph    
Max Gust Speed 59 mph    
Visibility 6.8 miles    
Events Rain    
Averages and records for this station are not official NWS values.
T = Trace of Precipitation, MM = Missing Value Source: Averaged Metar Reports

Daily Weather History Graph

Daily Weather History Graph

Search for Another Location

Airport or City:

Trip Planner

Search our weather history database for the weather conditions in past years. The results will help you decide how hot, cold, wet, or windy it might be!

Date:

Astronomy

Dec. 23, 2012 Rise Set
Actual Time 8:46 AM GMT 4:23 PM GMT
Civil Twilight 8:04 AM GMT 5:05 PM GMT
Nautical Twilight 7:19 AM GMT 5:50 PM GMT
Astronomical Twilight 6:37 AM GMT 6:32 PM GMT
Moon 1:24 PM GMT (12/23) 3:56 AM GMT (12/23)
Length of Visible Light 9h 01m
Length of Day
7h 37m
Waxing Gibbous, 80% of the Moon is Illuminated
Dec 23
Waxing Gibbous
Dec 28
Full
Jan 5
Last Quarter
Jan 11
New
Jan 18
First Quarter

Hourly Weather History & Observations

Time (GMT) Temp. Windchill Dew Point Humidity Pressure Visibility Wind Dir Wind Speed Gust Speed Precip Events Conditions
12:00 AM 52 °F - 45 °F 69% 29.18 in 11 mi SW 31.3 mph - -   Partly Cloudy
12:00 AM 51.8 °F - 44.6 °F 76% 29.18 in 6.2 mi SW 31.1 mph 47.2 mph N/A   Mostly Cloudy
12:30 AM 51.8 °F - 42.8 °F 71% 29.18 in 6.2 mi SW 40.3 mph 56.4 mph N/A   Mostly Cloudy
1:00 AM 48.2 °F - 42.8 °F 82% 29.21 in 3.7 mi SW 43.7 mph 58.7 mph N/A Rain Light Rain
1:30 AM 48.2 °F - 42.8 °F 82% 29.27 in 6.2 mi WSW 36.8 mph 48.3 mph N/A Rain Light Rain
2:00 AM 48.2 °F - 42.8 °F 82% 29.30 in 5.6 mi WSW 38.0 mph 54.1 mph N/A Rain Light Rain
2:30 AM 46.4 °F 37.5 °F 42.8 °F 87% 29.30 in 6.2 mi WSW 27.6 mph - N/A Rain Light Rain
3:00 AM 46.4 °F 37.7 °F 42.8 °F 87% 29.33 in 6.2 mi WSW 26.5 mph - N/A   Mostly Cloudy
3:30 AM 46.4 °F 37.9 °F 42.8 °F 87% 29.36 in 4.3 mi WSW 25.3 mph 39.1 mph N/A Rain Light Rain Showers
4:00 AM 46.4 °F 38.5 °F 42.8 °F 87% 29.39 in 6.2 mi West 21.9 mph - N/A   Partly Cloudy
4:30 AM 46.4 °F 38.3 °F 41.0 °F 81% 29.39 in 6.2 mi WSW 23.0 mph - N/A   Scattered Clouds
5:00 AM 46.4 °F 39.0 °F 41.0 °F 81% 29.39 in 6.2 mi WSW 19.6 mph - N/A   Scattered Clouds
5:30 AM 48.2 °F - 41.0 °F 76% 29.42 in 6.2 mi WSW 18.4 mph - N/A   Partly Cloudy
6:00 AM 47 °F - 41 °F 73% 29.44 in 12 mi WSW 17.9 mph - -   Partly Cloudy
6:00 AM 46.4 °F 39.2 °F 41.0 °F 81% 29.44 in 6.2 mi WSW 18.4 mph - N/A   Scattered Clouds
6:30 AM 46.4 °F 39.5 °F 41.0 °F 81% 29.44 in 6.2 mi WSW 17.3 mph - N/A   Scattered Clouds
7:00 AM 44.6 °F 36.9 °F 41.0 °F 87% 29.47 in 6.2 mi SW 18.4 mph - N/A   Partly Cloudy
7:30 AM 44.6 °F 38.1 °F 42.8 °F 93% 29.47 in 6.2 mi SW 13.8 mph - N/A   Scattered Clouds
8:00 AM 44.6 °F 38.4 °F 42.8 °F 93% 29.47 in 6.2 mi SW 12.7 mph - N/A   Scattered Clouds
8:30 AM 46.4 °F 40.4 °F 42.8 °F 87% 29.50 in 6.2 mi SW 13.8 mph - N/A   Partly Cloudy
9:00 AM 44.6 °F 38.4 °F 42.8 °F 93% 29.50 in 6.2 mi SW 12.7 mph - N/A   Mostly Cloudy
9:30 AM 44.6 °F 40.2 °F 44.6 °F 100% 29.53 in 6.2 mi SSW 8.1 mph - N/A   Mostly Cloudy
10:00 AM 46.4 °F 41.5 °F 42.8 °F 87% 29.53 in 6.2 mi SW 10.4 mph - N/A   Mostly Cloudy
10:30 AM 46.4 °F 42.4 °F 44.6 °F 93% 29.53 in 6.2 mi SW 8.1 mph - N/A   Mostly Cloudy
11:00 AM 48.2 °F - 42.8 °F 82% 29.56 in 6.2 mi SW 11.5 mph - N/A   Mostly Cloudy
11:30 AM 48.2 °F - 42.8 °F 82% 29.56 in 6.2 mi SW 9.2 mph - N/A   Mostly Cloudy
12:00 PM 48 °F - 43 °F 77% 29.57 in 16 mi SSW 8.9 mph - -   Partly Cloudy
12:00 PM 48.2 °F - 42.8 °F 82% 29.56 in 6.2 mi SSW 8.1 mph - N/A   Mostly Cloudy
12:30 PM 48.2 °F - 42.8 °F 82% 29.56 in 6.2 mi SSW 8.1 mph - N/A   Mostly Cloudy
1:00 PM 48.2 °F - 42.8 °F 82% 29.56 in 6.2 mi South 10.4 mph - N/A   Mostly Cloudy
1:30 PM 50.0 °F - 44.6 °F 82% 29.56 in 6.2 mi SSW 10.4 mph - N/A   Mostly Cloudy
2:00 PM 50.0 °F - 44.6 °F 82% 29.56 in 6.2 mi SW 10.4 mph - N/A   Partly Cloudy
2:30 PM 50.0 °F - 44.6 °F 82% 29.53 in 6.2 mi SSW 10.4 mph - N/A   Scattered Clouds
3:00 PM 50.0 °F - 44.6 °F 82% 29.56 in 6.2 mi SW 13.8 mph - N/A   Partly Cloudy
3:30 PM 48.2 °F - 42.8 °F 82% 29.53 in 6.2 mi SSW 10.4 mph - N/A   Partly Cloudy
4:00 PM 48.2 °F - 42.8 °F 82% 29.53 in 6.2 mi SSW 10.4 mph - N/A   Partly Cloudy
4:30 PM 48.2 °F - 42.8 °F 82% 29.53 in 6.2 mi SSW 8.1 mph - N/A   Partly Cloudy
5:00 PM 46.4 °F 42.4 °F 42.8 °F 87% 29.56 in 6.2 mi South 8.1 mph - N/A   Partly Cloudy
5:30 PM 44.6 °F 39.7 °F 42.8 °F 93% 29.53 in 6.2 mi SE 9.2 mph - N/A   Partly Cloudy
6:00 PM 46 °F - 43 °F 84% 29.56 in 16 mi South 11.2 mph - -   Scattered Clouds
6:00 PM 46.4 °F 41.5 °F 42.8 °F 87% 29.53 in 6.2 mi South 10.4 mph - N/A   Partly Cloudy
6:30 PM 44.6 °F 39.7 °F 42.8 °F 93% 29.53 in 6.2 mi South 9.2 mph - N/A   Partly Cloudy
7:00 PM 44.6 °F 38.8 °F 42.8 °F 93% 29.56 in - South 11.5 mph - N/A   Clear
7:30 PM 44.6 °F 40.2 °F 41.0 °F 87% 29.53 in - SSE 8.1 mph - N/A   Clear
8:00 PM 44.6 °F 39.7 °F 41.0 °F 87% 29.53 in - SSE 9.2 mph - N/A   Clear
8:30 PM 44.6 °F 39.2 °F 41.0 °F 87% 29.53 in - SSE 10.4 mph - N/A   Clear
9:00 PM 44.6 °F 39.2 °F 41.0 °F 87% 29.53 in - SE 10.4 mph - N/A   Clear
9:30 PM 44.6 °F 39.2 °F 41.0 °F 87% 29.53 in - SE 10.4 mph - N/A   Clear
10:00 PM 44.6 °F 40.7 °F 41.0 °F 87% 29.53 in - ESE 6.9 mph - N/A   Clear
10:30 PM 44.6 °F 40.7 °F 42.8 °F 93% 29.50 in - East 6.9 mph - N/A   Clear
11:00 PM 44.6 °F 39.2 °F 42.8 °F 93% 29.50 in - SE 10.4 mph - N/A   Clear
11:30 PM 44.6 °F 38.4 °F 42.8 °F 93% 29.50 in 6.2 mi SE 12.7 mph - N/A   Mostly Cloudy